Location: Unspecified
(53.5462°N, 0.0000°E)
Time: 02:40:57
(UTC+00:00)

RS-15 - Visible Passes

Search period start: 04 April 2026 00:00
Search period end: 14 April 2026 00:00
Orbit: 1893 x 2151 km, 64.8° (Epoch: 29 March)

Date Brightness Start Highest point End Pass type
(mag) Time Alt. Az. Time Alt. Az. Time Alt. Az.
4 Apr 8.1 01:59:45 10° NW 02:10:41 53° WSW 02:17:45 26° S visible
4 Apr 9.2 04:14:48 10° WNW 04:20:12 15° W 04:25:17 11° WSW visible
4 Apr 8.8 20:56:45 10° WNW 21:07:27 48° N 21:18:39 10° ENE visible
4 Apr 8.3 23:10:51 10° NW 23:22:09 64° NNE 23:33:35 11° ESE visible
5 Apr 8.0 01:23:36 10° NW 01:34:51 63° WSW 01:41:11 32° S visible
5 Apr 9.0 03:37:29 10° NW 03:44:55 20° W 03:48:49 17° WSW visible
5 Apr 8.8 20:20:10 10° W 20:30:51 49° N 20:42:03 10° ENE visible
5 Apr 8.4 22:34:35 10° NW 22:45:45 58° NNE 22:57:26 10° ESE visible
6 Apr 7.9 00:47:30 10° NW 00:58:55 75° SW 01:05:13 34° SSE visible
6 Apr 8.8 03:00:45 10° NW 03:09:31 26° WSW 03:12:53 23° SW visible
6 Apr 8.8 19:43:34 10° W 19:54:18 51° NNW 20:05:32 10° ENE visible
6 Apr 8.6 21:58:15 10° WNW 22:09:16 53° NNE 22:20:48 10° E visible
7 Apr 7.9 00:11:23 10° NW 00:22:53 86° SW 00:29:32 33° SE visible
7 Apr 8.6 02:24:17 10° NW 02:34:01 33° WSW 02:37:13 29° SW visible
7 Apr 8.7 19:07:00 10° W 19:17:47 54° NNW 19:29:05 10° ENE visible
7 Apr 8.7 21:21:51 10° WNW 21:32:44 50° NNE 21:44:07 10° E visible
7 Apr 8.0 23:35:15 10° NW 23:46:46 83° NE 23:54:02 29° SE visible
8 Apr 8.4 01:48:00 10° NW 01:58:24 42° WSW 02:01:43 35° SW visible
8 Apr 8.8 20:45:22 10° WNW 20:56:09 49° N 21:07:26 10° E visible
8 Apr 8.1 22:59:05 10° NW 23:10:32 73° NE 23:18:39 25° ESE visible
9 Apr 8.2 01:11:47 10° NW 01:22:40 51° WSW 01:26:21 40° SSW visible
9 Apr 9.3 03:27:06 10° WNW 03:32:06 14° W 03:34:02 13° WSW visible
9 Apr 8.8 20:08:50 10° WNW 20:19:33 48° N 20:30:47 10° ENE visible
9 Apr 8.3 22:22:54 10° NW 22:34:13 65° NNE 22:43:21 20° ESE visible
10 Apr 8.0 00:35:38 10° NW 00:46:51 62° WSW 00:51:04 43° S visible
10 Apr 9.1 02:49:38 10° WNW 02:56:50 19° W 02:58:46 18° WSW visible
10 Apr 8.8 19:32:16 10° W 19:42:58 49° N 19:54:10 10° ENE visible
10 Apr 8.4 21:46:38 10° NW 21:57:50 59° NNE 22:08:08 15° ESE visible
10 Apr 8.0 23:59:31 10° NW 00:10:56 73° SW 00:15:51 42° SSE visible
11 Apr 8.9 02:12:50 10° NW 02:21:29 25° W 02:23:34 24° WSW visible
11 Apr 8.6 21:10:18 10° WNW 21:21:21 54° NNE 21:32:55 10° E visible
11 Apr 8.0 23:23:25 10° NW 23:34:55 85° SW 23:40:41 38° SE visible
12 Apr 8.6 01:36:21 10° NW 01:45:58 32° WSW 01:48:25 30° SW visible
12 Apr 8.7 20:33:54 10° WNW 20:44:50 51° NNE 20:56:15 10° E visible
12 Apr 8.0 22:47:17 10° NW 22:58:48 84° NE 23:05:35 32° SE visible
13 Apr 8.4 01:00:03 10° NW 01:10:22 40° WSW 01:13:19 36° SW visible
13 Apr 8.7 19:57:27 10° WNW 20:08:15 49° N 20:19:33 10° E visible
13 Apr 8.1 22:11:08 10° NW 22:22:35 74° NE 22:30:32 26° ESE visible
